Other Public Products
Issued by NWS Charleston, SC

Current Version | Previous Version | Graphics & Text | Print | Product List | Glossary On
Versions: 1 2 3 4 5 6 7 8 9 10 11 12 13 14 15 16 17 18 19 20 21 22 23 24 25 26 27 28 29 30 31 32 33 34 35 36 37 38 39 40 41 42 43 44 45 46 47 48 49 50
000 FPUS82 KCHS 171812 OPUCHS TEST...KCHS/KSAV Gateway Observations...TEST National Weather Service Charleston SC 200 PM EDT THU AUG 17 2017 NOTE: "fair" indicates few or no clouds below 12,000 feet with no significant weather and/or obstructions to visibility. SCZ050-WAZ558-NCZ071-TXZ119-213-PAZ071-DCZ001-FLZ074-172-MI076- NYZ176-178-MAZ016-IL014-TNZ027-NJZ106-GAZ044-MD014-171900- ...Gateway Observations for Charleston International... CITY SKY/WX TMP DP RH WIND PRES REMARKS Chas Airport PTSUNNY 96 77 54 W8 29.99F HX 111 6HR MIN TEMP: 82; 6HR MAX TEMP: 96; Seattle CLOUDY 65 56 72 VRB5 30.20S 6HR MIN TEMP: 59; 6HR MAX TEMP: 65; Charlotte MOSUNNY 92 75 57 SW9 30.02F HX 103 6HR MIN TEMP: 79; 6HR MAX TEMP: 93; Dallas DFW CLOUDY 89 78 70 SE10 30.00F HX 103 6HR MIN TEMP: 73; 6HR MAX TEMP: 89; Dallas Love PTSUNNY 85 76 74 SE14 30.02F HX 94 6HR MIN TEMP: 72; 6HR MAX TEMP: 85; 6HR PCP: 0.01; Philladelphia MOSUNNY 87 66 49 S7 30.00F 6HR MIN TEMP: 73; 6HR MAX TEMP: 88; Wash National PTSUNNY 87 77 72 S9 29.98F HX 99 6HR MIN TEMP: 78; 6HR MAX TEMP: 89; Baltimore MOSUNNY 85 75 72 CALM 29.97F HX 93 6HR MIN TEMP: 76; 6HR MAX TEMP: 87; Miami MOSUNNY 93 74 53 E13 30.06F HX 103 6HR MIN TEMP: 85; 6HR MAX TEMP: 94; Detroit LGT RAIN 77 75 93 W6 29.83S FOG 6HR MIN TEMP: 72; 6HR MAX TEMP: 82; 6HR PCP: 0.20; Newark PTSUNNY 79 61 53 S10 30.03F 6HR MIN TEMP: 68; 6HR MAX TEMP: 81; Laguardia MOSUNNY 79 65 62 NE9 30.02F 6HR MIN TEMP: 70; 6HR MAX TEMP: 80; J F K MOSUNNY 79 63 57 SE9 30.05F 6HR MIN TEMP: 71; 6HR MAX TEMP: 80; Boston Logan MOSUNNY 80 47 31 W8G17 30.01F 6HR MIN TEMP: 68; 6HR MAX TEMP: 81; Ft. Lauderdale MOSUNNY 91 76 61 E12G17 30.05F HX 103 6HR MIN TEMP: 84; 6HR MAX TEMP: 91; Chicago O`Hare PTSUNNY 82 68 62 SW17 29.72F 6HR MIN TEMP: 73; 6HR MAX TEMP: 82; 6HR PCP: 0.02; Chicago Midway PTSUNNY 80 71 74 SW16 29.74F 6HR MIN TEMP: 73; 6HR MAX TEMP: 80; 6HR PCP: 0.07; Houston Bush MOSUNNY 94 70 45 SW10 30.05F HX 100 6HR MIN TEMP: 82; 6HR MAX TEMP: 94; Houston Hobby MOSUNNY 96 72 45 S9 30.04F HX 104 6HR MIN TEMP: 82; 6HR MAX TEMP: 97; Nashville PTSUNNY 86 72 62 SW10 30.01F HX 92 6HR MIN TEMP: 76; 6HR MAX TEMP: 87; Atlanta PTSUNNY 86 73 65 W12 30.08F HX 93 6HR MIN TEMP: 78; 6HR MAX TEMP: 89; $$ GAZ044-118-TXZ119-213-NCZ071-DCZ001-MDZ014-506-PAZ021-071-NJZ106- NYZ176-178-MAZ106-OHZ011-021-055-MIZ076-KYZ091-ILZ014-INZ047- MNZ060-ONZ431-171900- ...Gateway Observations for Savannah International... CITY SKY/WX TMP DP RH WIND PRES REMARKS Savannah Arpt PTSUNNY 93 76 57 SW15 30.03F HX 105 6HR MIN TEMP: 81; 6HR MAX TEMP: 96; Atlanta PTSUNNY 86 73 65 W12 30.08F HX 93 6HR MIN TEMP: 78; 6HR MAX TEMP: 89; Charlotte MOSUNNY 92 75 57 SW9 30.02F HX 103 6HR MIN TEMP: 79; 6HR MAX TEMP: 93; Dallas DFW CLOUDY 89 78 70 SE10 30.00F HX 103 6HR MIN TEMP: 73; 6HR MAX TEMP: 89; Houston Bush MOSUNNY 94 70 45 SW10 30.05F HX 100 6HR MIN TEMP: 82; 6HR MAX TEMP: 94; Wash National PTSUNNY 87 77 72 S9 29.98F HX 99 6HR MIN TEMP: 78; 6HR MAX TEMP: 89; Wash Dulles PTSUNNY 87 75 67 SW6 29.97F HX 96 6HR MIN TEMP: 73; 6HR MAX TEMP: 88; Baltimore MOSUNNY 85 75 72 CALM 29.97F HX 93 6HR MIN TEMP: 76; 6HR MAX TEMP: 87; Philadelphia MOSUNNY 87 66 49 S7 30.00F 6HR MIN TEMP: 73; 6HR MAX TEMP: 88; Newark PTSUNNY 79 61 53 S10 30.03F 6HR MIN TEMP: 68; 6HR MAX TEMP: 81; Laguardia MOSUNNY 79 65 62 NE9 30.02F 6HR MIN TEMP: 70; 6HR MAX TEMP: 80; J F K MOSUNNY 79 63 57 SE9 30.05F 6HR MIN TEMP: 71; 6HR MAX TEMP: 80; Boston MOSUNNY 80 47 31 W8G17 30.01F 6HR MIN TEMP: 68; 6HR MAX TEMP: 81; Pittsburg PTSUNNY 86 69 56 S7 29.95F HX 90 6HR MIN TEMP: 68; 6HR MAX TEMP: 87; Akron CLOUDY 88 69 53 S16G24 29.91F HX 92 6HR MIN TEMP: 72; 6HR MAX TEMP: 88; 6HR PCP: TRACE; Cleveland CLOUDY 88 71 57 SW15 29.88F HX 94 6HR MIN TEMP: 74; 6HR MAX TEMP: 88; Cincinnati PTSUNNY 86 73 65 SW15G28 29.88F HX 93 6HR MIN TEMP: 75; 6HR MAX TEMP: 88; Columbus MOSUNNY 88 73 61 SW16G23 29.88F HX 96 Detroit LGT RAIN 77 75 93 W6 29.83S FOG 6HR MIN TEMP: 72; 6HR MAX TEMP: 82; 6HR PCP: 0.20; Chicago O`Hare PTSUNNY 82 68 62 SW17 29.72F 6HR MIN TEMP: 73; 6HR MAX TEMP: 82; 6HR PCP: 0.02; Minneapolis CLOUDY 66 60 81 NW16G25 29.70R 6HR MIN TEMP: 65; 6HR MAX TEMP: 68; 6HR PCP: TRACE; Indianapolis MOSUNNY 85 70 60 W18 29.85F 6HR MIN TEMP: 74; 6HR MAX TEMP: 85; 6HR PCP: 0.03; Toronto Canada LGT RAIN 72 61 68 E13 29.92F $$

USA.gov is the U.S. government's official web portal to all federal, state and local government web resources and services.